星链-36196(STARLINK-36196)

导读

STARLINK-36196是美国于2025年12月15日发射的Starlink星链卫星,隶属于SpaceX公司的低轨卫星互联网星座。作为星链扩容计划中的一员,它主要为全球提供高速低延迟宽带互联网覆盖,尤其服务偏远地区、移动载体及应急通信场景,延续了星链星座批量部署、持续组网的建设节奏,进一步扩充了星座规模与服务能力。

基本信息
目录编号:
67107
目录名称:
STARLINK-36196
国际标识:
2025-299F
轨道中心:
EARTH
卫星名称:
星链-36196
卫星全名:
星链-36196(STARLINK-36196)
卫星状态:
在轨 (已飞行263 天)
发射日期:
2025-12-15 UTC
国别 :
美国 (US)
星等 :
--
轨道信息
数据来源 国际轨道数据
星历时间: 2026-09-04T13:58:06+0800
11小时前
查看轨道信息
半长轴: 6861.167km
偏心率: 0.0001527
轨道倾角: 43.002°
近地点辐角 276.361°
升交点赤经 240.665°
平近点角 83.707°
近地点: 481.982km
远地点: 484.078km
周期: 94.266分钟
每日圈数: 15.275865
详细信息
固有亮度:
5
最大亮度:
2.5
卫星平台:
Starlink V1.0
覆盖范围:
全球
运营商:
太空探索技术公司
运营商所在国:
美国
制造商(研发单位):
太空探索技术公司
制造商所在国:
美国
使用方式:
暂无
卫星简介
Starlink 计划是 SpaceX 推出的全球卫星互联网项目,通过发射低轨道卫星,为全球尤其是偏远地区提供高速、低延迟的互联网服务。自 2019 年起,Starlink 已部署数千颗卫星,旨在缩小全球数字鸿沟,推动互联网普及。该项目还为军事、航空等行业提供通信支持,带来广泛经济效益。
2D轨道图
3D轨道图
轨道高度分析图
轨道倾角分析图
轨道综合分析图
查看轨道综合分析图
交会数据列表
事件ID 空间交会对象 最接近时刻(TCA) 交会距离 交会风险概率(CRP) 交会风险指数(CRI) 操作
CDM_260906-135305-692506-710721
2026-09-06T
13:53:34+0000
0.365 km
远距离
2.757869E-4 高风险 0.84
CDM_260906-210806-419906-710721
SJ-26 (64199)
2026-09-06T
21:08:46+0000
0.814 km
远距离
4.668085E-5 中风险 0.68
CDM_260906-121905-692506-710721
2026-09-06T
12:19:24+0000
1.296 km
极远距离
7.096617E-6 低风险 0.52
CDM_260903-002305-323206-710721
2026-09-03T
00:23:59+0000
1.541 km
极远距离
4.379793E-6 低风险 0.48
CDM_260906-152705-692506-710721
2026-09-06T
15:27:43+0000
1.610 km
极远距离
3.512721E-6 低风险 0.46
CDM_260906-061106-163906-710721
2026-09-06T
06:11:55+0000
1.478 km
极远距离
1.580028E-6 低风险 0.39
CDM_260906-065806-163906-710721
2026-09-06T
06:58:59+0000
1.502 km
极远距离
1.50926E-6 低风险 0.39
CDM_260906-104505-692506-710721
2026-09-06T
10:45:15+0000
2.646 km
极远距离
1.10532E-6 低风险 0.36
CDM_260906-083306-163906-710721
2026-09-06T
08:33:09+0000
1.698 km
极远距离
1.076669E-6 低风险 0.36
CDM_260906-043706-163906-710721
2026-09-06T
04:37:45+0000
1.863 km
极远距离
8.550586E-7 极低风险 0.34